YAOGAN 4 DEB

Satellite information

Favourite Embed

Satellite Type and Status

DEBRISIN ORBIT

Key statistics

Satellite YAOGAN 4 DEB at a glance.

Uptime

6062

Days in orbit

Revolutions

≈ 14.3

Per day

Orbit

SSO

Sun Synchronous Orbit

Inclination

97.9

Latest

Satellite identification and parameters

Extended collection of information and parameters for YAOGAN 4 DEB.

Object identification

Identified? True

Debris? True

Object name: YAOGAN 4 DEB

International designator: 2008-061C

Object number (NORAD): 38264

Object ID (CCSDS): 38264

Country: PEOPLES REPUBLIC OF CHINA (PRC)

Current information (Y/N): Y

RCS size: SMALL

Orbital parameters

Period: 100.923 minutes

Inclination: 97.8934 deg

SMA: 7180.479 km

Apoapsis: 974.419 km

Periapsis: 630.27 km

RAAN: 55.2595 deg

Eccentricy: 0.0239642

Argument of periapsis: 23.7994 deg

Mean anomaly: 6.3159 deg

Mean motion: 14.26831279 rev/day

Mean motion (dot): 0.0000145 rev/day2

B* drag term: 0.0004539 1/REarth

Two-line elements (TLE)

Creation date: July 5, 2025, 5:45 p.m.

Reference frame: TEME

Reference center: EARTH

Epoch: July 5, 2025, 1:59 p.m. UTC

TLE line 0: 0 YAOGAN 4 DEB

TLE line 1: 1 38264U 08061C 25186.58302775 .00001450 00000-0 45390-3 0 9991

TLE line 2: 2 38264 97.8934 55.2595 0239642 23.7994 6.3159 14.26831279854943

Live tracking on map

Real-time ground track for satellite YAOGAN 4 DEB.

In-orbit conjunctions

A list of the most updated potential collisions computed for object YAOGAN 4 DEB.

Target Orbit TCA Probability of collision Miss distance Type
DELTA 1 DEB SSO 2024-11-15 10:22:11 0.0003521031 965.0 (m) DEBRIS
COSMOS 1275 DEB LEO 2024-09-20 19:18:11 0.0001400897 163.0 (m) DEBRIS
COSMOS 1759 LEO 2024-08-14 05:19:55 0.0001196861 325.0 (m) PAYLOAD

Associated space launch

Chinese Earth observation satellite, likely also used for military reconnaissance

YAOGAN 4 DEB was lifted into orbit during the mission ‘Long March 2D | Yaogan Weixing 4’, on board a Long March 2D space rocket.

The launch took place on Dec. 1, 2008, 4:42 a.m. from Launch Area 4 (SLS-2 / 603).

For more information about the launch, click the button.

Launch to space Long March 2D | Yaogan Weixing 4
Long March 2D | Yaogan Weixing 4

Agency: N/A

Status: Launch Successful

Launch date: Dec. 1, 2008, 4:42 a.m. UTC

Rocket: Long March 2D

Launch pad: Launch Area 4 (SLS-2 / 603)

Location: Jiuquan Satellite Launch Center, People's Republic of China

...

Latest news about this satellite

There are no fresh news available about this satellite. Check back as we update our databases every day.


Newsletter sign-up

Weekly statistics, charts and insights to help you stay on top of the space industry.